Lake Fork, ID

6:19 PM MST on February 10, 2016 (GMT -0700)
McCall

Weather History for KMYL - October, 2014

Change the Weather History Date:

Saturday, October 11, 2014

  Actual Average Record
Temperature  
Mean Temperature 49 °F 41 °F  
Max Temperature 60 °F 58 °F 83 °F (1991)
Min Temperature 37 °F 25 °F 15 °F (1986)
Degree Days  
Heating Degree Days 16 24  
Month to date heating degree days 156 242  
Since 1 July heating degree days 524 1007  
Cooling Degree Days 0 0  
Month to date cooling degree days 0 0  
Year to date cooling degree days 185 25  
Moisture  
Dew Point 35 °F    
Average Humidity 65    
Maximum Humidity 85    
Minimum Humidity 44    
Precipitation  
Precipitation 0.03 in 0.04 in 1.06 in (1942)
Month to date precipitation 0.03 0.37  
Year to date precipitation 17.44 14.29  
Sea Level Pressure  
Sea Level Pressure 30.02 in    
Wind  
Wind Speed 4 mph (WNW)    
Max Wind Speed 21 mph    
Max Gust Speed 28 mph    
Visibility 10 miles    
Events Rain    
T = Trace of Precipitation, MM = Missing Value Source: NWS Daily Summary

Daily Weather History Graph

Daily Weather History Graph

Search for Another Location

Airport or City:

Trip Planner

Search our weather history database for the weather conditions in past years. The results will help you decide how hot, cold, wet, or windy it might be!

Date:

Astronomy

Oct. 11, 2014 Rise Set
Actual Time 7:54 AM MDT 7:06 PM MDT
Civil Twilight 7:25 AM MDT 7:35 PM MDT
Nautical Twilight 6:51 AM MDT 8:09 PM MDT
Astronomical Twilight 6:17 AM MDT 8:43 PM MDT
Moon 9:29 PM MDT 11:30 AM MDT
Length of Visible Light 12h 10m
Length of Day
11h 11m
Waning Gibbous, 87% of the Moon is Illuminated
Oct 11
Waning Gibbous
Oct 15
Last Quarter
Oct 23
New
Oct 30
First Quarter
Nov 6
Full

Hourly Weather History & Observations

Time (MDT) Temp. Windchill Dew Point Humidity Pressure Visibility Wind Dir Wind Speed Gust Speed Precip Events Conditions
12:51 AM 43.0 °F - 33.1 °F 68% 30.07 in 10.0 mi Calm Calm - N/A   Clear
1:51 AM 39.0 °F 36.8 °F 35.1 °F 86% 30.07 in 10.0 mi East 3.5 mph - N/A   Clear
2:51 AM 41.0 °F - 33.1 °F 73% 30.06 in 10.0 mi Calm Calm - N/A   Clear
3:51 AM 39.0 °F - 34.0 °F 82% 30.05 in 10.0 mi Calm Calm - N/A   Clear
4:51 AM 39.9 °F 37.8 °F 33.1 °F 77% 30.04 in 10.0 mi NE 3.5 mph - N/A   Clear
5:51 AM 39.0 °F 36.8 °F 33.1 °F 79% 30.05 in 10.0 mi East 3.5 mph - N/A   Clear
6:51 AM 39.0 °F - 35.1 °F 86% 30.06 in 10.0 mi Calm Calm - N/A   Clear
7:51 AM 39.0 °F - 35.1 °F 86% 30.08 in 10.0 mi Calm Calm - N/A   Clear
8:51 AM 39.9 °F - 35.1 °F 83% 30.07 in 10.0 mi Calm Calm - N/A   Clear
9:51 AM 42.1 °F - 35.1 °F 76% 30.08 in 10.0 mi Calm Calm - N/A   Partly Cloudy
10:51 AM 46.0 °F - 37.9 °F 73% 30.07 in 10.0 mi Calm Calm - N/A   Overcast
11:51 AM 51.1 °F - 37.0 °F 59% 30.05 in 10.0 mi Calm Calm - N/A   Mostly Cloudy
12:51 PM 54.0 °F - 37.9 °F 55% 30.01 in 10.0 mi Calm Calm - N/A   Scattered Clouds
1:51 PM 57.0 °F - 37.9 °F 49% 30.00 in 10.0 mi South 8.1 mph - N/A   Mostly Cloudy
2:51 PM 59.0 °F - 37.0 °F 44% 29.95 in 10.0 mi Variable 4.6 mph - N/A   Overcast
3:33 PM 57.0 °F - 37.9 °F 49% 30.00 in 9.0 mi SW 17.3 mph 25.3 mph 0.00 in Rain Light Rain
3:51 PM 55.9 °F - 39.0 °F 53% 29.98 in 10.0 mi SSW 17.3 mph 24.2 mph 0.00 in   Overcast
4:51 PM 55.9 °F - 39.0 °F 53% 29.95 in 10.0 mi WSW 11.5 mph 20.7 mph 0.01 in   Mostly Cloudy
5:51 PM 54.0 °F - 39.9 °F 59% 29.96 in 10.0 mi West 9.2 mph 19.6 mph N/A   Mostly Cloudy
6:51 PM 51.1 °F - 37.0 °F 59% 29.97 in 10.0 mi West 6.9 mph - 0.00 in   Clear
7:51 PM 48.9 °F - 30.9 °F 50% 29.98 in 10.0 mi NW 6.9 mph - N/A   Partly Cloudy
8:51 PM 44.1 °F 42.5 °F 30.0 °F 58% 30.00 in 10.0 mi ENE 3.5 mph - N/A   Clear
9:51 PM 46.9 °F - 28.9 °F 50% 29.99 in 10.0 mi WNW 6.9 mph - N/A   Mostly Cloudy
10:51 PM 43.0 °F 38.2 °F 37.0 °F 80% 30.03 in 10.0 mi North 8.1 mph - 0.02 in   Mostly Cloudy
11:51 PM 43.0 °F 40.3 °F 35.1 °F 74% 30.01 in 10.0 mi NE 4.6 mph - N/A   Mostly Cloudy